Morgantown, WV

5:24 AM EDT on May 29, 2017 (GMT -0400)
Morgantown Municipal-Hart

Weather History for KMGW - June, 2013

Change the Weather History Date:

Wednesday, June 26, 2013

  Actual Average Record
Temperature  
Mean Temperature 73 °F 72 °F  
Max Temperature 80 °F 83 °F 96 °F (1952)
Min Temperature 66 °F 61 °F 47 °F (1986)
Degree Days  
Heating Degree Days 0 0  
Month to date heating degree days 11 29  
Since 1 June heating degree days 11 29  
Since 1 July heating degree days 4910 5182  
Cooling Degree Days 8 7  
Month to date cooling degree days 140 131  
Year to date cooling degree days 286 198  
Since 1 June cooling degree days 140 131  
Growing Degree Days 23 (Base 50)    
Moisture  
Dew Point 67 °F    
Average Humidity 80    
Maximum Humidity 97    
Minimum Humidity 62    
Precipitation  
Precipitation 0.70 in 0.14 in 1.94 in (1978)
Month to date precipitation 3.67 3.53  
Year to date precipitation 16.31 20.72  
Sea Level Pressure  
Sea Level Pressure 29.94 in    
Wind  
Wind Speed 4 mph (SSE)    
Max Wind Speed 13 mph    
Max Gust Speed 21 mph    
Visibility 8 miles    
Events Rain    
T = Trace of Precipitation, MM = Missing Value Source: NWS Daily Summary

Daily Weather History Graph

Daily Weather History Graph

Search for Another Location

Airport or City:

Trip Planner

Search our weather history database for the weather conditions in past years. The results will help you decide how hot, cold, wet, or windy it might be!

Date:

Astronomy

Jun. 26, 2013 Rise Set
Actual Time 5:53 AM EDT 8:51 PM EDT
Civil Twilight 5:21 AM EDT 9:23 PM EDT
Nautical Twilight 4:39 AM EDT 10:05 PM EDT
Astronomical Twilight 3:52 AM EDT 10:52 PM EDT
Moon 11:14 PM EDT (6/26) 9:42 AM EDT (6/26)
Length of Visible Light 16h 02m
Length of Day
14h 57m
Waning Gibbous, 85% of the Moon is Illuminated
Jun 26
Waning Gibbous
Jun 30
Last Quarter
Jul 8
New
Jul 15
First Quarter
Jul 22
Full

Hourly Weather History & Observations

Time (EDT) Temp. Heat Index Dew Point Humidity Pressure Visibility Wind Dir Wind Speed Gust Speed Precip Events Conditions
12:53 AM 71.1 °F - 64.0 °F 78% 29.94 in 10.0 mi South 4.6 mph - N/A   Clear
1:53 AM 73.9 °F - 66.0 °F 76% 29.94 in 10.0 mi Calm Calm - N/A   Clear
2:46 AM 69.8 °F - 64.4 °F 83% 30.00 in 10.0 mi ENE 8.1 mph - N/A   Overcast
2:53 AM 69.1 °F - 64.9 °F 87% 29.96 in 10.0 mi East 6.9 mph - N/A   Overcast
3:11 AM 69.8 °F - 64.4 °F 83% 29.98 in 10.0 mi ENE 4.6 mph - N/A   Mostly Cloudy
3:53 AM 69.1 °F - 64.9 °F 87% 29.94 in 10.0 mi Calm Calm - N/A   Mostly Cloudy
4:16 AM 68.0 °F - 64.4 °F 88% 29.98 in 10.0 mi NNW 5.8 mph - 0.00 in   Overcast
4:36 AM 68.0 °F - 64.4 °F 88% 29.98 in 2.0 mi NE 6.9 mph - 0.15 in Rain Rain
4:41 AM 68.0 °F - 64.4 °F 88% 30.00 in 4.0 mi NW 9.2 mph - 0.19 in Rain Light Rain
4:49 AM 66.2 °F - 64.4 °F 94% 29.98 in 2.0 mi NNE 4.6 mph - 0.27 in Rain Rain
4:53 AM 66.9 °F - 64.9 °F 93% 29.96 in 4.0 mi North 5.8 mph - 0.27 in Rain Light Rain
5:53 AM 66.9 °F - 64.9 °F 93% 29.95 in 10.0 mi NE 4.6 mph - 0.04 in   Overcast
6:53 AM 66.9 °F - 64.9 °F 93% 29.96 in 1.2 mi NNE 5.8 mph - 0.15 in Rain Heavy Rain
7:02 AM 66.2 °F - 66.2 °F 100% 29.98 in 0.8 mi East 5.8 mph - 0.10 in Rain Heavy Rain
7:07 AM 66.2 °F - 66.2 °F 100% 29.99 in 2.0 mi Calm Calm - 0.11 in Rain Light Rain
7:13 AM 66.2 °F - 66.2 °F 100% 29.98 in 7.0 mi SSE 5.8 mph - 0.11 in   Mostly Cloudy
7:53 AM 69.1 °F - 66.0 °F 90% 29.92 in 10.0 mi SSE 8.1 mph - 0.11 in   Clear
8:53 AM 71.1 °F - 66.0 °F 84% 29.92 in 10.0 mi SSE 5.8 mph - N/A   Scattered Clouds
9:53 AM 73.9 °F - 68.0 °F 82% 29.93 in 10.0 mi Variable 4.6 mph - N/A   Mostly Cloudy
10:15 AM 75.2 °F - 69.8 °F 83% 29.96 in 10.0 mi SSW 8.1 mph - N/A   Mostly Cloudy
10:53 AM 75.9 °F - 69.1 °F 79% 29.94 in 9.0 mi SW 8.1 mph - N/A   Mostly Cloudy
11:10 AM 75.2 °F - 69.8 °F 83% 29.97 in 10.0 mi Variable 6.9 mph - N/A   Mostly Cloudy
11:33 AM 77.0 °F - 69.8 °F 78% 29.97 in 9.0 mi SW 9.2 mph - N/A   Mostly Cloudy
11:53 AM 77.0 °F - 69.1 °F 76% 29.94 in 10.0 mi SSW 5.8 mph - N/A   Mostly Cloudy
12:05 PM 78.8 °F - 69.8 °F 74% 29.95 in 10.0 mi Variable 6.9 mph - N/A   Scattered Clouds
12:23 PM 78.8 °F - 69.8 °F 74% 29.97 in 10.0 mi SSW 6.9 mph - N/A   Mostly Cloudy
12:53 PM 78.1 °F - 69.1 °F 74% 29.94 in 10.0 mi Variable 3.5 mph - N/A   Overcast
1:01 PM 78.8 °F - 69.8 °F 74% 29.97 in 10.0 mi Variable 3.5 mph - N/A   Overcast
1:21 PM 78.8 °F - 69.8 °F 74% 29.96 in 10.0 mi Variable 4.6 mph - N/A   Mostly Cloudy
1:53 PM 77.0 °F - 69.1 °F 76% 29.92 in 10.0 mi SSW 5.8 mph - N/A   Overcast
2:06 PM 71.6 °F - 66.2 °F 83% 29.98 in 1.8 mi Variable 3.5 mph 20.7 mph 0.07 in Rain Heavy Rain
2:19 PM 71.6 °F - 68.0 °F 88% 29.96 in 6.0 mi Variable 3.5 mph - 0.13 in Rain Light Rain
2:26 PM 71.6 °F - 68.0 °F 88% 29.96 in 6.0 mi SSW 5.8 mph - 0.13 in   Mostly Cloudy
2:53 PM 73.9 °F - 69.1 °F 85% 29.92 in 10.0 mi SW 4.6 mph - 0.13 in   Mostly Cloudy
3:53 PM 77.0 °F - 68.0 °F 74% 29.91 in 10.0 mi Variable 4.6 mph - N/A   Partly Cloudy
4:53 PM 78.1 °F - 68.0 °F 71% 29.90 in 10.0 mi Variable 3.5 mph - N/A   Mostly Cloudy
5:00 PM 78.8 °F - 68.0 °F 69% 29.92 in 10.0 mi SSW 4.6 mph - N/A   Overcast
5:31 PM 77.0 °F - 68.0 °F 74% 29.91 in 10.0 mi Calm Calm - N/A   Overcast
5:53 PM 80.1 °F 82.7 °F 68.0 °F 67% 29.88 in 10.0 mi Variable 3.5 mph - N/A   Overcast
6:53 PM 80.1 °F 82.1 °F 66.0 °F 62% 29.86 in 10.0 mi Variable 3.5 mph - N/A   Mostly Cloudy
7:53 PM 77.0 °F - 68.0 °F 74% 29.88 in 10.0 mi Variable 3.5 mph - N/A   Partly Cloudy
8:53 PM 75.0 °F - 69.1 °F 82% 29.87 in 10.0 mi Calm Calm - N/A   Partly Cloudy
9:53 PM 73.0 °F - 69.1 °F 87% 29.86 in 10.0 mi South 3.5 mph - N/A   Clear
10:53 PM 72.0 °F - 69.1 °F 91% 29.86 in 10.0 mi South 3.5 mph - N/A   Clear
11:53 PM 70.0 °F - 68.0 °F 93% 29.84 in 10.0 mi Calm Calm - N/A   Clear